TimeMST,TemperatureF,Dew PointF,Humidity,Sea Level PressureIn,VisibilityMPH,Wind Direction,Wind SpeedMPH,Gust SpeedMPH,PrecipitationIn,Events,Conditions,WindDirDegrees,DateUTC
12:53 AM,21.9,16.0,78,30.40,10.0,West,18.4,-,N/A,,Clear,260,2013-03-01 07:53:00
1:53 AM,19.9,14.0,78,30.40,10.0,WSW,20.7,26.5,N/A,,Scattered Clouds,250,2013-03-01 08:53:00
2:53 AM,19.9,15.1,81,30.41,10.0,WSW,18.4,-,N/A,,Overcast,240,2013-03-01 09:53:00
4:53 AM,19.9,16.0,85,30.40,10.0,WSW,13.8,-,N/A,,Clear,250,2013-03-01 11:53:00
5:53 AM,23.0,18.0,81,30.42,10.0,West,16.1,28.8,N/A,,Scattered Clouds,260,2013-03-01 12:53:00
6:53 AM,23.0,18.0,81,30.42,10.0,WSW,13.8,23.0,N/A,,Scattered Clouds,250,2013-03-01 13:53:00
7:53 AM,24.1,19.9,84,30.46,10.0,WSW,15.0,26.5,N/A,,Scattered Clouds,250,2013-03-01 14:53:00
8:31 AM,24.8,19.4,80,30.35,10.0,West,12.7,19.6,N/A,,Overcast,260,2013-03-01 15:31:00
8:53 AM,26.1,21.0,81,30.46,10.0,WSW,11.5,-,N/A,,Mostly Cloudy,250,2013-03-01 15:53:00
9:00 AM,26.6,21.2,80,30.35,10.0,WSW,13.8,19.6,N/A,,Mostly Cloudy,250,2013-03-01 16:00:00
9:37 AM,28.4,21.2,74,30.36,10.0,West,15.0,28.8,N/A,,Scattered Clouds,260,2013-03-01 16:37:00
9:50 AM,28.4,21.2,74,30.36,10.0,WSW,16.1,24.2,N/A,,Mostly Cloudy,250,2013-03-01 16:50:00
9:53 AM,28.0,21.9,78,30.46,10.0,West,16.1,24.2,N/A,,Scattered Clouds,260,2013-03-01 16:53:00
10:53 AM,30.0,23.0,75,30.45,10.0,West,17.3,27.6,N/A,,Mostly Cloudy,260,2013-03-01 17:53:00
11:53 AM,33.1,25.0,72,30.44,10.0,West,20.7,25.3,N/A,,Mostly Cloudy,260,2013-03-01 18:53:00
12:53 PM,36.0,26.1,67,30.39,10.0,West,17.3,28.8,N/A,,Partly Cloudy,260,2013-03-01 19:53:00
3:53 PM,37.9,28.0,68,30.38,10.0,West,21.9,29.9,N/A,,Overcast,260,2013-03-01 22:53:00
4:53 PM,37.9,28.9,70,30.40,10.0,WSW,18.4,24.2,N/A,,Overcast,250,2013-03-01 23:53:00
5:53 PM,35.1,28.0,76,30.41,10.0,WSW,16.1,-,N/A,,Mostly Cloudy,240,2013-03-02 00:53:00
6:53 PM,34.0,27.0,75,30.41,10.0,WSW,17.3,-,N/A,,Partly Cloudy,250,2013-03-02 01:53:00
7:53 PM,33.1,27.0,78,30.41,10.0,WSW,18.4,-,N/A,,Clear,250,2013-03-02 02:53:00
8:53 PM,32.0,26.1,79,30.43,10.0,WSW,18.4,-,N/A,,Clear,250,2013-03-02 03:53:00
9:53 PM,30.9,25.0,79,30.43,10.0,WSW,17.3,-,N/A,,Clear,250,2013-03-02 04:53:00
10:53 PM,30.0,25.0,82,30.44,10.0,West,12.7,-,N/A,,Clear,260,2013-03-02 05:53:00
11:53 PM,28.9,24.1,82,30.43,10.0,West,10.4,-,N/A,,Clear,260,2013-03-02 06:53:00